Year,Month,Day,Hour,Minute,Value (Times are PST for temperature in C)
2006,08,06,00,00,16.40
2006,08,06,00,01,16.40
2006,08,06,00,02,16.30
2006,08,06,00,03,16.30
2006,08,06,00,04,16.20
2006,08,06,00,05,16.20
2006,08,06,00,06,16.10
2006,08,06,00,07,16.10
2006,08,06,00,08,16.10
2006,08,06,00,09,16.10
2006,08,06,00,10,16.10
2006,08,06,00,11,16.10
2006,08,06,00,12,16.10
2006,08,06,00,13,16.10
2006,08,06,00,14,16.20
2006,08,06,00,15,16.20
2006,08,06,00,16,16.30
2006,08,06,00,17,16.30
2006,08,06,00,18,16.30
2006,08,06,00,19,16.30
2006,08,06,00,20,16.40
2006,08,06,00,21,16.40
2006,08,06,00,22,16.40
2006,08,06,00,23,16.40
2006,08,06,00,24,16.40
2006,08,06,00,25,16.40
2006,08,06,00,26,16.40
2006,08,06,00,27,16.40
2006,08,06,00,28,16.40
2006,08,06,00,29,16.40
2006,08,06,00,30,16.40
2006,08,06,00,31,16.30
2006,08,06,00,32,16.30
2006,08,06,00,33,16.30
2006,08,06,00,34,16.30
2006,08,06,00,35,16.30
2006,08,06,00,36,16.30
2006,08,06,00,37,16.30
2006,08,06,00,38,16.30
2006,08,06,00,39,16.30
2006,08,06,00,40,16.30
2006,08,06,00,41,16.30
2006,08,06,00,42,16.30
2006,08,06,00,43,16.30
2006,08,06,00,44,16.20
2006,08,06,00,45,16.20
2006,08,06,00,46,16.20
2006,08,06,00,47,16.20
2006,08,06,00,48,16.20
2006,08,06,00,49,16.10
2006,08,06,00,50,16.10
2006,08,06,00,51,16.10
2006,08,06,00,52,16.10
2006,08,06,00,53,16.10
2006,08,06,00,54,16.10
2006,08,06,00,55,16.10
2006,08,06,00,56,16.10
2006,08,06,00,57,16.10
2006,08,06,00,58,16.10
2006,08,06,00,59,16.10
2006,08,06,01,00,16.10
2006,08,06,01,01,16.10
2006,08,06,01,02,16.10
2006,08,06,01,03,16.10
2006,08,06,01,04,16.10
2006,08,06,01,05,16.10
2006,08,06,01,06,16.10
2006,08,06,01,07,16.00
2006,08,06,01,08,15.90
2006,08,06,01,09,15.90
2006,08,06,01,10,15.90
2006,08,06,01,11,15.90
2006,08,06,01,12,15.90
2006,08,06,01,13,15.80
2006,08,06,01,14,15.80
2006,08,06,01,15,15.80
2006,08,06,01,16,15.80
2006,08,06,01,17,15.80
2006,08,06,01,18,15.80
2006,08,06,01,19,15.80
2006,08,06,01,20,15.80
2006,08,06,01,21,15.80
2006,08,06,01,22,15.90
2006,08,06,01,23,15.90
2006,08,06,01,24,15.90
2006,08,06,01,25,15.90
2006,08,06,01,26,15.90
2006,08,06,01,27,15.90
2006,08,06,01,28,15.80
2006,08,06,01,29,15.80
2006,08,06,01,30,15.80
2006,08,06,01,31,15.80
2006,08,06,01,32,15.80
2006,08,06,01,33,15.80
2006,08,06,01,34,15.80
2006,08,06,01,35,15.80
2006,08,06,01,36,15.80
2006,08,06,01,37,15.80
2006,08,06,01,38,15.80
2006,08,06,01,39,15.70
2006,08,06,01,40,15.70
2006,08,06,01,41,15.70
2006,08,06,01,42,15.70
2006,08,06,01,43,15.60
2006,08,06,01,44,15.60
2006,08,06,01,45,15.60
2006,08,06,01,46,15.60
2006,08,06,01,47,15.50
2006,08,06,01,48,15.50
2006,08,06,01,49,15.50
2006,08,06,01,50,15.50
2006,08,06,01,51,15.50
2006,08,06,01,52,15.50
2006,08,06,01,53,15.50
2006,08,06,01,54,15.50
2006,08,06,01,55,15.50
2006,08,06,01,56,15.40
2006,08,06,01,57,15.40
2006,08,06,01,58,15.40
2006,08,06,01,59,15.30
2006,08,06,02,00,15.30
2006,08,06,02,01,15.30
2006,08,06,02,02,15.20
2006,08,06,02,03,15.20
2006,08,06,02,04,15.10
2006,08,06,02,05,15.10
2006,08,06,02,06,15.10
2006,08,06,02,07,15.10
2006,08,06,02,08,15.10
2006,08,06,02,09,15.10
2006,08,06,02,10,15.10
2006,08,06,02,11,15.10
2006,08,06,02,12,15.10
2006,08,06,02,13,15.10
2006,08,06,02,14,15.10
2006,08,06,02,15,15.20
2006,08,06,02,16,15.20
2006,08,06,02,17,15.20
2006,08,06,02,18,15.20
2006,08,06,02,19,15.20
2006,08,06,02,20,15.20
2006,08,06,02,21,15.20
2006,08,06,02,22,15.10
2006,08,06,02,23,15.10
2006,08,06,02,24,15.10
2006,08,06,02,25,15.10
2006,08,06,02,26,15.00
2006,08,06,02,27,15.00
2006,08,06,02,28,15.00
2006,08,06,02,29,15.00
2006,08,06,02,30,14.90
2006,08,06,02,31,14.90
2006,08,06,02,32,14.90
2006,08,06,02,33,14.90
2006,08,06,02,34,14.90
2006,08,06,02,35,14.90
2006,08,06,02,36,14.90
2006,08,06,02,37,14.90
2006,08,06,02,38,14.90
2006,08,06,02,39,14.90
2006,08,06,02,40,14.80
2006,08,06,02,41,14.80
2006,08,06,02,42,14.80
2006,08,06,02,43,14.80
2006,08,06,02,44,14.80
2006,08,06,02,45,14.80
2006,08,06,02,46,14.70
2006,08,06,02,47,14.70
2006,08,06,02,48,14.70
2006,08,06,02,49,14.70
2006,08,06,02,50,14.70
2006,08,06,02,51,14.70
2006,08,06,02,52,14.60
2006,08,06,02,53,14.60
2006,08,06,02,54,14.60
2006,08,06,02,55,14.60
2006,08,06,02,56,14.50
2006,08,06,02,57,14.50
2006,08,06,02,58,14.50
2006,08,06,02,59,14.50
2006,08,06,03,00,14.50
2006,08,06,03,01,14.50
2006,08,06,03,02,14.50
2006,08,06,03,03,14.60
2006,08,06,03,04,14.60
2006,08,06,03,05,14.60
2006,08,06,03,06,14.50
2006,08,06,03,07,14.50
2006,08,06,03,08,14.50
2006,08,06,03,09,14.50
2006,08,06,03,10,14.50
2006,08,06,03,11,14.50
2006,08,06,03,12,14.40
2006,08,06,03,13,14.40
2006,08,06,03,14,14.40
2006,08,06,03,15,14.40
2006,08,06,03,16,14.40
2006,08,06,03,17,14.40
2006,08,06,03,18,14.40
2006,08,06,03,19,14.40
2006,08,06,03,20,14.40
2006,08,06,03,21,14.40
2006,08,06,03,22,14.40
2006,08,06,03,23,14.40
2006,08,06,03,24,14.40
2006,08,06,03,25,14.30
2006,08,06,03,26,14.30
2006,08,06,03,27,14.30
2006,08,06,03,28,14.30
2006,08,06,03,29,14.30
2006,08,06,03,30,14.30
2006,08,06,03,31,14.30
2006,08,06,03,32,14.30
2006,08,06,03,33,14.30
2006,08,06,03,34,14.30
2006,08,06,03,35,14.30
2006,08,06,03,36,14.20
2006,08,06,03,37,14.20
2006,08,06,03,38,14.20
2006,08,06,03,39,14.20
2006,08,06,03,40,14.20
2006,08,06,03,41,14.20
2006,08,06,03,42,14.20
2006,08,06,03,43,14.20
2006,08,06,03,44,14.20
2006,08,06,03,45,14.20
2006,08,06,03,46,14.20
2006,08,06,03,47,14.20
2006,08,06,03,48,14.20
2006,08,06,03,49,14.20
2006,08,06,03,50,14.20
2006,08,06,03,51,14.10
2006,08,06,03,52,14.10
2006,08,06,03,53,14.10
2006,08,06,03,54,14.00
2006,08,06,03,55,14.00
2006,08,06,03,56,14.00
2006,08,06,03,57,14.00
2006,08,06,03,58,14.00
2006,08,06,03,59,14.00
2006,08,06,04,00,14.00
2006,08,06,04,01,14.00
2006,08,06,04,02,14.00
2006,08,06,04,03,13.90
2006,08,06,04,04,13.80
2006,08,06,04,05,13.70
2006,08,06,04,06,13.60
2006,08,06,04,07,13.50
2006,08,06,04,08,13.40
2006,08,06,04,09,13.30
2006,08,06,04,10,13.30
2006,08,06,04,11,13.30
2006,08,06,04,12,13.30
2006,08,06,04,13,13.20
2006,08,06,04,14,13.20
2006,08,06,04,15,13.20
2006,08,06,04,16,13.20
2006,08,06,04,17,13.20
2006,08,06,04,18,13.20
2006,08,06,04,19,13.20
2006,08,06,04,20,13.30
2006,08,06,04,21,13.30
2006,08,06,04,22,13.30
2006,08,06,04,23,13.30
2006,08,06,04,24,13.30
2006,08,06,04,25,13.30
2006,08,06,04,26,13.30
2006,08,06,04,27,13.30
2006,08,06,04,28,13.30
2006,08,06,04,29,13.30
2006,08,06,04,30,13.30
2006,08,06,04,31,13.30
2006,08,06,04,32,13.40
2006,08,06,04,33,13.40
2006,08,06,04,34,13.40
2006,08,06,04,35,13.40
2006,08,06,04,36,13.40
2006,08,06,04,37,13.40
2006,08,06,04,38,13.50
2006,08,06,04,39,13.60
2006,08,06,04,40,13.60
2006,08,06,04,41,13.70
2006,08,06,04,42,13.70
2006,08,06,04,43,13.70
2006,08,06,04,44,13.70
2006,08,06,04,45,13.70
2006,08,06,04,46,13.80
2006,08,06,04,47,13.80
2006,08,06,04,48,13.90
2006,08,06,04,49,13.90
2006,08,06,04,50,13.90
2006,08,06,04,51,13.90
2006,08,06,04,52,13.90
2006,08,06,04,53,14.00
2006,08,06,04,54,14.00
2006,08,06,04,55,14.00
2006,08,06,04,56,13.90
2006,08,06,04,57,13.90
2006,08,06,04,58,13.80
2006,08,06,04,59,13.70
2006,08,06,05,00,13.70
2006,08,06,05,01,13.60
2006,08,06,05,02,13.60
2006,08,06,05,03,13.60
2006,08,06,05,04,13.60
2006,08,06,05,05,13.60
2006,08,06,05,06,13.60
2006,08,06,05,07,13.60
2006,08,06,05,08,13.60
2006,08,06,05,09,13.60
2006,08,06,05,10,13.60
2006,08,06,05,11,13.60
2006,08,06,05,12,13.60
2006,08,06,05,13,13.60
2006,08,06,05,14,13.50
2006,08,06,05,15,13.50
2006,08,06,05,16,13.50
2006,08,06,05,17,13.50
2006,08,06,05,18,13.40
2006,08,06,05,19,13.40
2006,08,06,05,20,13.40
2006,08,06,05,21,13.40
2006,08,06,05,22,13.40
2006,08,06,05,23,13.40
2006,08,06,05,24,13.40
2006,08,06,05,25,13.40
2006,08,06,05,26,13.40
2006,08,06,05,27,13.30
2006,08,06,05,28,13.30
2006,08,06,05,29,13.30
2006,08,06,05,30,13.30
2006,08,06,05,31,13.30
2006,08,06,05,32,13.30
2006,08,06,05,33,13.30
2006,08,06,05,34,13.30
2006,08,06,05,35,13.30
2006,08,06,05,36,13.30
2006,08,06,05,37,13.30
2006,08,06,05,38,13.30
2006,08,06,05,39,13.30
2006,08,06,05,40,13.30
2006,08,06,05,41,13.30
2006,08,06,05,42,13.30
2006,08,06,05,43,13.30
2006,08,06,05,44,13.30
2006,08,06,05,45,13.30
2006,08,06,05,46,13.30
2006,08,06,05,47,13.20
2006,08,06,05,48,13.20
2006,08,06,05,49,13.20
2006,08,06,05,50,13.20
2006,08,06,05,51,13.20
2006,08,06,05,52,13.20
2006,08,06,05,53,13.20
2006,08,06,05,54,13.10
2006,08,06,05,55,13.10
2006,08,06,05,56,13.00
2006,08,06,05,57,13.00
2006,08,06,05,58,13.00
2006,08,06,05,59,12.90
2006,08,06,06,00,12.90
2006,08,06,06,01,12.90
2006,08,06,06,02,12.90
2006,08,06,06,03,12.90
2006,08,06,06,04,12.90
2006,08,06,06,05,12.80
2006,08,06,06,06,12.80
2006,08,06,06,07,12.80
2006,08,06,06,08,12.80
2006,08,06,06,09,12.80
2006,08,06,06,10,12.90
2006,08,06,06,11,12.90
2006,08,06,06,12,12.90
2006,08,06,06,13,12.90
2006,08,06,06,14,12.90
2006,08,06,06,15,12.90
2006,08,06,06,16,13.00
2006,08,06,06,17,13.00
2006,08,06,06,18,13.00
2006,08,06,06,19,13.00
2006,08,06,06,20,13.10
2006,08,06,06,21,13.10
2006,08,06,06,22,13.10
2006,08,06,06,23,13.10
2006,08,06,06,24,13.10
2006,08,06,06,25,13.10
2006,08,06,06,26,13.10
2006,08,06,06,27,13.10
2006,08,06,06,28,13.10
2006,08,06,06,29,13.10
2006,08,06,06,30,13.10
2006,08,06,06,31,13.20
2006,08,06,06,32,13.20
2006,08,06,06,33,13.20
2006,08,06,06,34,13.20
2006,08,06,06,35,13.20
2006,08,06,06,36,13.20
2006,08,06,06,37,13.20
2006,08,06,06,38,13.20
2006,08,06,06,39,13.20
2006,08,06,06,40,13.20
2006,08,06,06,41,13.20
2006,08,06,06,42,13.20
2006,08,06,06,43,13.20
2006,08,06,06,44,13.30
2006,08,06,06,45,13.30
2006,08,06,06,46,13.30
2006,08,06,06,47,13.30
2006,08,06,06,48,13.30
2006,08,06,06,49,13.30
2006,08,06,06,50,13.30
2006,08,06,06,51,13.40
2006,08,06,06,52,13.40
2006,08,06,06,53,13.40
2006,08,06,06,54,13.40
2006,08,06,06,55,13.50
2006,08,06,06,56,13.50
2006,08,06,06,57,13.50
2006,08,06,06,58,13.50
2006,08,06,06,59,13.60
2006,08,06,07,00,13.60
2006,08,06,07,01,13.60
2006,08,06,07,02,13.70
2006,08,06,07,03,13.70
2006,08,06,07,04,13.70
2006,08,06,07,05,13.70
2006,08,06,07,06,13.70
2006,08,06,07,07,13.80
2006,08,06,07,08,13.80
2006,08,06,07,09,13.90
2006,08,06,07,10,13.90
2006,08,06,07,11,14.00
2006,08,06,07,12,14.10
2006,08,06,07,13,14.20
2006,08,06,07,14,14.30
2006,08,06,07,15,14.50
2006,08,06,07,16,14.60
2006,08,06,07,17,14.80
2006,08,06,07,18,14.90
2006,08,06,07,19,15.00
2006,08,06,07,20,15.00
2006,08,06,07,21,15.10
2006,08,06,07,22,15.10
2006,08,06,07,23,15.20
2006,08,06,07,24,15.20
2006,08,06,07,25,15.30
2006,08,06,07,26,15.30
2006,08,06,07,27,15.40
2006,08,06,07,28,15.40
2006,08,06,07,29,15.40
2006,08,06,07,30,15.50
2006,08,06,07,31,15.60
2006,08,06,07,32,15.60
2006,08,06,07,33,15.70
2006,08,06,07,34,15.70
2006,08,06,07,35,15.70
2006,08,06,07,36,15.80
2006,08,06,07,37,15.80
2006,08,06,07,38,15.80
2006,08,06,07,39,15.80
2006,08,06,07,40,15.90
2006,08,06,07,41,16.00
2006,08,06,07,42,16.10
2006,08,06,07,43,16.10
2006,08,06,07,44,16.10
2006,08,06,07,45,16.20
2006,08,06,07,46,16.20
2006,08,06,07,47,16.30
2006,08,06,07,48,16.30
2006,08,06,07,49,16.30
2006,08,06,07,50,16.40
2006,08,06,07,51,16.40
2006,08,06,07,52,16.50
2006,08,06,07,53,16.60
2006,08,06,07,54,16.70
2006,08,06,07,55,16.70
2006,08,06,07,56,16.80
2006,08,06,07,57,16.80
2006,08,06,07,58,16.90
2006,08,06,07,59,16.90
2006,08,06,08,00,17.00
2006,08,06,08,01,17.00
2006,08,06,08,02,17.00
2006,08,06,08,03,17.10
2006,08,06,08,04,17.10
2006,08,06,08,05,17.20
2006,08,06,08,06,17.20
2006,08,06,08,07,17.20
2006,08,06,08,08,17.20
2006,08,06,08,09,17.20
2006,08,06,08,10,17.30
2006,08,06,08,11,17.30
2006,08,06,08,12,17.30
2006,08,06,08,13,17.30
2006,08,06,08,14,17.30
2006,08,06,08,15,17.30
2006,08,06,08,16,17.40
2006,08,06,08,17,17.40
2006,08,06,08,18,17.40
2006,08,06,08,19,17.40
2006,08,06,08,20,17.50
2006,08,06,08,21,17.50
2006,08,06,08,22,17.60
2006,08,06,08,23,17.60
2006,08,06,08,24,17.60
2006,08,06,08,25,17.60
2006,08,06,08,26,17.60
2006,08,06,08,27,17.60
2006,08,06,08,28,17.70
2006,08,06,08,29,17.70
2006,08,06,08,30,17.80
2006,08,06,08,31,17.90
2006,08,06,08,32,17.90
2006,08,06,08,33,18.00
2006,08,06,08,34,18.10
2006,08,06,08,35,18.20
2006,08,06,08,36,18.30
2006,08,06,08,37,18.40
2006,08,06,08,38,18.60
2006,08,06,08,39,18.70
2006,08,06,08,40,18.80
2006,08,06,08,41,18.90
2006,08,06,08,42,19.00
2006,08,06,08,43,19.10
2006,08,06,08,44,19.10
2006,08,06,08,45,19.10
2006,08,06,08,46,19.20
2006,08,06,08,47,19.30
2006,08,06,08,48,19.40
2006,08,06,08,49,19.50
2006,08,06,08,50,19.60
2006,08,06,08,51,19.60
2006,08,06,08,52,19.70
2006,08,06,08,53,19.80
2006,08,06,08,54,19.90
2006,08,06,08,55,20.00
2006,08,06,08,56,20.10
2006,08,06,08,57,20.20
2006,08,06,08,58,20.20
2006,08,06,08,59,20.20
2006,08,06,09,00,20.10
2006,08,06,09,01,20.20
2006,08,06,09,02,20.20
2006,08,06,09,03,20.20
2006,08,06,09,04,20.30
2006,08,06,09,05,20.40
2006,08,06,09,06,20.40
2006,08,06,09,07,20.40
2006,08,06,09,08,20.50
2006,08,06,09,09,20.50
2006,08,06,09,10,20.60
2006,08,06,09,11,20.60
2006,08,06,09,12,20.60
2006,08,06,09,13,20.60
2006,08,06,09,14,20.60
2006,08,06,09,15,20.60
2006,08,06,09,16,20.60
2006,08,06,09,17,20.60
2006,08,06,09,18,20.70
2006,08,06,09,19,20.80
2006,08,06,09,20,20.80
2006,08,06,09,21,20.90
2006,08,06,09,22,20.90
2006,08,06,09,23,20.90
2006,08,06,09,24,21.00
2006,08,06,09,25,21.10
2006,08,06,09,26,21.10
2006,08,06,09,27,21.30
2006,08,06,09,28,21.30
2006,08,06,09,29,21.40
2006,08,06,09,30,21.50
2006,08,06,09,31,21.60
2006,08,06,09,32,21.70
2006,08,06,09,33,21.80
2006,08,06,09,34,21.80
2006,08,06,09,35,21.70
2006,08,06,09,36,21.70
2006,08,06,09,37,21.70
2006,08,06,09,38,21.80
2006,08,06,09,39,21.80
2006,08,06,09,40,21.80
2006,08,06,09,41,21.80
2006,08,06,09,42,21.80
2006,08,06,09,43,21.80
2006,08,06,09,44,22.00
2006,08,06,09,45,22.00
2006,08,06,09,46,22.00
2006,08,06,09,47,22.00
2006,08,06,09,48,22.10
2006,08,06,09,49,22.00
2006,08,06,09,50,22.00
2006,08,06,09,51,22.00
2006,08,06,09,52,22.10
2006,08,06,09,53,22.00
2006,08,06,09,54,22.00
2006,08,06,09,55,22.10
2006,08,06,09,56,22.00
2006,08,06,09,57,22.00
2006,08,06,09,58,22.00
2006,08,06,09,59,22.10
2006,08,06,10,00,22.10
2006,08,06,10,01,22.10
2006,08,06,10,02,22.20
2006,08,06,10,03,22.30
2006,08,06,10,04,22.50
2006,08,06,10,05,22.60
2006,08,06,10,06,22.60
2006,08,06,10,07,22.60
2006,08,06,10,08,22.70
2006,08,06,10,09,22.70
2006,08,06,10,10,22.80
2006,08,06,10,11,22.80
2006,08,06,10,12,22.90
2006,08,06,10,13,22.90
2006,08,06,10,14,22.90
2006,08,06,10,15,22.90
2006,08,06,10,16,22.90
2006,08,06,10,17,22.90
2006,08,06,10,18,22.90
2006,08,06,10,19,22.90
2006,08,06,10,20,22.90
2006,08,06,10,21,22.90
2006,08,06,10,22,22.90
2006,08,06,10,23,22.90
2006,08,06,10,24,22.90
2006,08,06,10,25,23.10
2006,08,06,10,26,23.20
2006,08,06,10,27,23.20
2006,08,06,10,28,23.30
2006,08,06,10,29,23.30
2006,08,06,10,30,23.10
2006,08,06,10,31,22.90
2006,08,06,10,32,22.90
2006,08,06,10,33,22.70
2006,08,06,10,34,22.70
2006,08,06,10,35,22.80
2006,08,06,10,36,22.80
2006,08,06,10,37,22.80
2006,08,06,10,38,22.90
2006,08,06,10,39,22.90
2006,08,06,10,40,22.90
2006,08,06,10,41,22.90
2006,08,06,10,42,22.80
2006,08,06,10,43,22.70
2006,08,06,10,44,22.70
2006,08,06,10,45,22.70
2006,08,06,10,46,22.70
2006,08,06,10,47,22.70
2006,08,06,10,48,22.70
2006,08,06,10,49,22.70
2006,08,06,10,50,22.70
2006,08,06,10,51,22.60
2006,08,06,10,52,22.60
2006,08,06,10,53,22.60
2006,08,06,10,54,22.60
2006,08,06,10,55,22.60
2006,08,06,10,56,22.60
2006,08,06,10,57,22.60
2006,08,06,10,58,22.70
2006,08,06,10,59,22.70
2006,08,06,11,00,22.60
2006,08,06,11,01,22.50
2006,08,06,11,02,22.40
2006,08,06,11,03,22.30
2006,08,06,11,04,22.30
2006,08,06,11,05,22.30
2006,08,06,11,06,22.30
2006,08,06,11,07,22.30
2006,08,06,11,08,22.30
2006,08,06,11,09,22.30
2006,08,06,11,10,22.10
2006,08,06,11,11,22.10
2006,08,06,11,12,22.00
2006,08,06,11,13,22.00
2006,08,06,11,14,22.00
2006,08,06,11,15,22.00
2006,08,06,11,16,22.00
2006,08,06,11,17,21.80
2006,08,06,11,18,21.60
2006,08,06,11,19,21.50
2006,08,06,11,20,21.50
2006,08,06,11,21,21.60
2006,08,06,11,22,21.60
2006,08,06,11,23,21.70
2006,08,06,11,24,21.60
2006,08,06,11,25,21.60
2006,08,06,11,26,21.40
2006,08,06,11,27,21.30
2006,08,06,11,28,21.30
2006,08,06,11,29,21.20
2006,08,06,11,30,21.10
2006,08,06,11,31,21.10
2006,08,06,11,32,21.20
2006,08,06,11,33,21.30
2006,08,06,11,34,21.30
2006,08,06,11,35,21.50
2006,08,06,11,36,21.60
2006,08,06,11,37,21.60
2006,08,06,11,38,21.60
2006,08,06,11,39,21.60
2006,08,06,11,40,21.60
2006,08,06,11,41,21.50
2006,08,06,11,42,21.40
2006,08,06,11,43,21.50
2006,08,06,11,44,21.40
2006,08,06,11,45,21.30
2006,08,06,11,46,21.30
2006,08,06,11,47,21.30
2006,08,06,11,48,21.40
2006,08,06,11,49,21.40
2006,08,06,11,50,21.50
2006,08,06,11,51,21.60
2006,08,06,11,52,21.60
2006,08,06,11,53,21.60
2006,08,06,11,54,21.60
2006,08,06,11,55,21.70
2006,08,06,11,56,21.70
2006,08,06,11,57,21.70
2006,08,06,11,58,21.80
2006,08,06,11,59,21.80
2006,08,06,12,00,21.90
2006,08,06,12,01,21.90
2006,08,06,12,02,21.90
2006,08,06,12,03,21.80
2006,08,06,12,04,21.80
2006,08,06,12,05,21.80
2006,08,06,12,06,21.90
2006,08,06,12,07,22.00
2006,08,06,12,08,22.10
2006,08,06,12,09,22.20
2006,08,06,12,10,22.20
2006,08,06,12,11,22.30
2006,08,06,12,12,22.30
2006,08,06,12,13,22.40
2006,08,06,12,14,22.40
2006,08,06,12,15,22.50
2006,08,06,12,16,22.60
2006,08,06,12,17,22.50
2006,08,06,12,18,22.50
2006,08,06,12,19,22.60
2006,08,06,12,20,22.70
2006,08,06,12,21,22.70
2006,08,06,12,22,22.80
2006,08,06,12,23,22.70
2006,08,06,12,24,22.70
2006,08,06,12,25,22.70
2006,08,06,12,26,22.70
2006,08,06,12,27,22.70
2006,08,06,12,28,22.80
2006,08,06,12,29,22.80
2006,08,06,12,30,22.80
2006,08,06,12,31,22.80
2006,08,06,12,32,22.70
2006,08,06,12,33,22.60
2006,08,06,12,34,22.60
2006,08,06,12,35,22.50
2006,08,06,12,36,22.60
2006,08,06,12,37,22.60
2006,08,06,12,38,22.70
2006,08,06,12,39,22.80
2006,08,06,12,40,22.90
2006,08,06,12,41,22.90
2006,08,06,12,42,22.70
2006,08,06,12,43,22.60
2006,08,06,12,44,22.50
2006,08,06,12,45,22.50
2006,08,06,12,46,22.50
2006,08,06,12,47,22.40
2006,08,06,12,48,22.40
2006,08,06,12,49,22.40
2006,08,06,12,50,22.40
2006,08,06,12,51,22.50
2006,08,06,12,52,22.60
2006,08,06,12,53,22.60
2006,08,06,12,54,22.60
2006,08,06,12,55,22.70
2006,08,06,12,56,22.70
2006,08,06,12,57,22.80
2006,08,06,12,58,22.90
2006,08,06,12,59,22.90
2006,08,06,13,00,22.90
2006,08,06,13,01,22.90
2006,08,06,13,02,22.90
2006,08,06,13,03,22.70
2006,08,06,13,04,22.70
2006,08,06,13,05,22.60
2006,08,06,13,06,22.60
2006,08,06,13,07,22.60
2006,08,06,13,08,22.80
2006,08,06,13,09,23.00
2006,08,06,13,10,23.20
2006,08,06,13,11,23.20
2006,08,06,13,12,23.30
2006,08,06,13,13,23.30
2006,08,06,13,14,23.30
2006,08,06,13,15,23.20
2006,08,06,13,16,23.20
2006,08,06,13,17,23.20
2006,08,06,13,18,23.20
2006,08,06,13,19,23.10
2006,08,06,13,20,23.10
2006,08,06,13,21,23.00
2006,08,06,13,22,22.90
2006,08,06,13,23,23.00
2006,08,06,13,24,23.10
2006,08,06,13,25,23.00
2006,08,06,13,26,22.90
2006,08,06,13,27,23.00
2006,08,06,13,28,23.10
2006,08,06,13,29,23.00
2006,08,06,13,30,22.90
2006,08,06,13,31,22.90
2006,08,06,13,32,22.90
2006,08,06,13,33,23.10
2006,08,06,13,34,23.30
2006,08,06,13,35,23.30
2006,08,06,13,36,23.40
2006,08,06,13,37,23.40
2006,08,06,13,38,23.40
2006,08,06,13,39,23.40
2006,08,06,13,40,23.40
2006,08,06,13,41,23.40
2006,08,06,13,42,23.40
2006,08,06,13,43,23.30
2006,08,06,13,44,23.30
2006,08,06,13,45,23.30
2006,08,06,13,46,23.30
2006,08,06,13,47,23.30
2006,08,06,13,48,23.40
2006,08,06,13,49,23.30
2006,08,06,13,50,23.30
2006,08,06,13,51,23.20
2006,08,06,13,52,23.20
2006,08,06,13,53,23.20
2006,08,06,13,54,23.20
2006,08,06,13,55,23.30
2006,08,06,13,56,23.30
2006,08,06,13,57,23.20
2006,08,06,13,58,23.20
2006,08,06,13,59,23.20
2006,08,06,14,00,23.30
2006,08,06,14,01,23.50
2006,08,06,14,02,23.60
2006,08,06,14,03,23.70
2006,08,06,14,04,23.70
2006,08,06,14,05,23.60
2006,08,06,14,06,23.40
2006,08,06,14,07,23.30
2006,08,06,14,08,23.30
2006,08,06,14,09,23.30
2006,08,06,14,10,23.30
2006,08,06,14,11,23.30
2006,08,06,14,12,23.30
2006,08,06,14,13,23.50
2006,08,06,14,14,23.70
2006,08,06,14,15,23.70
2006,08,06,14,16,23.70
2006,08,06,14,17,23.70
2006,08,06,14,18,23.70
2006,08,06,14,19,23.70
2006,08,06,14,20,23.70
2006,08,06,14,21,23.50
2006,08,06,14,22,23.40
2006,08,06,14,23,23.30
2006,08,06,14,24,23.30
2006,08,06,14,25,23.20
2006,08,06,14,26,23.00
2006,08,06,14,27,22.90
2006,08,06,14,28,22.90
2006,08,06,14,29,22.80
2006,08,06,14,30,22.90
2006,08,06,14,31,23.00
2006,08,06,14,32,23.10
2006,08,06,14,33,23.30
2006,08,06,14,34,23.40
2006,08,06,14,35,23.40
2006,08,06,14,36,23.40
2006,08,06,14,37,23.40
2006,08,06,14,38,23.30
2006,08,06,14,39,23.40
2006,08,06,14,40,23.60
2006,08,06,14,41,23.70
2006,08,06,14,42,23.90
2006,08,06,14,43,23.90
2006,08,06,14,44,23.90
2006,08,06,14,45,23.70
2006,08,06,14,46,23.50
2006,08,06,14,47,23.40
2006,08,06,14,48,23.20
2006,08,06,14,49,22.90
2006,08,06,14,50,22.90
2006,08,06,14,51,22.90
2006,08,06,14,52,22.90
2006,08,06,14,53,22.90
2006,08,06,14,54,22.80
2006,08,06,14,55,22.80
2006,08,06,14,56,22.60
2006,08,06,14,57,22.50
2006,08,06,14,58,22.50
2006,08,06,14,59,22.40
2006,08,06,15,00,22.40
2006,08,06,15,01,22.50
2006,08,06,15,02,22.50
2006,08,06,15,03,22.50
2006,08,06,15,04,22.40
2006,08,06,15,05,22.40
2006,08,06,15,06,22.30
2006,08,06,15,07,22.30
2006,08,06,15,08,22.30
2006,08,06,15,09,22.30
2006,08,06,15,10,22.30
2006,08,06,15,11,22.20
2006,08,06,15,12,22.20
2006,08,06,15,13,22.20
2006,08,06,15,14,22.30
2006,08,06,15,15,22.30
2006,08,06,15,16,22.30
2006,08,06,15,17,22.30
2006,08,06,15,18,22.30
2006,08,06,15,19,22.30
2006,08,06,15,20,22.30
2006,08,06,15,21,22.20
2006,08,06,15,22,22.10
2006,08,06,15,23,22.00
2006,08,06,15,24,22.00
2006,08,06,15,25,21.90
2006,08,06,15,26,21.80
2006,08,06,15,27,21.70
2006,08,06,15,28,21.70
2006,08,06,15,29,21.60
2006,08,06,15,30,21.50
2006,08,06,15,31,21.40
2006,08,06,15,32,21.30
2006,08,06,15,33,21.30
2006,08,06,15,34,21.30
2006,08,06,15,35,21.30
2006,08,06,15,36,21.40
2006,08,06,15,37,21.40
2006,08,06,15,38,21.30
2006,08,06,15,39,21.30
2006,08,06,15,40,21.30
2006,08,06,15,41,21.30
2006,08,06,15,42,21.30
2006,08,06,15,43,21.40
2006,08,06,15,44,21.30
2006,08,06,15,45,21.10
2006,08,06,15,46,20.90
2006,08,06,15,47,20.70
2006,08,06,15,48,20.60
2006,08,06,15,49,20.60
2006,08,06,15,50,20.40
2006,08,06,15,51,20.20
2006,08,06,15,52,20.20
2006,08,06,15,53,20.20
2006,08,06,15,54,20.20
2006,08,06,15,55,20.50
2006,08,06,15,56,20.70
2006,08,06,15,57,20.80
2006,08,06,15,58,20.90
2006,08,06,15,59,21.00
2006,08,06,16,00,21.20
2006,08,06,16,01,21.30
2006,08,06,16,02,21.30
2006,08,06,16,03,21.20
2006,08,06,16,04,21.20
2006,08,06,16,05,21.20
2006,08,06,16,06,21.30
2006,08,06,16,07,21.30
2006,08,06,16,08,21.30
2006,08,06,16,09,21.10
2006,08,06,16,10,21.00
2006,08,06,16,11,21.00
2006,08,06,16,12,21.00
2006,08,06,16,13,21.20
2006,08,06,16,14,21.30
2006,08,06,16,15,21.30
2006,08,06,16,16,21.30
2006,08,06,16,17,21.30
2006,08,06,16,18,21.30
2006,08,06,16,19,21.20
2006,08,06,16,20,21.20
2006,08,06,16,21,21.30
2006,08,06,16,22,21.30
2006,08,06,16,23,21.40
2006,08,06,16,24,21.50
2006,08,06,16,25,21.60
2006,08,06,16,26,21.60
2006,08,06,16,27,21.70
2006,08,06,16,28,21.90
2006,08,06,16,29,22.00
2006,08,06,16,30,22.20
2006,08,06,16,31,22.30
2006,08,06,16,32,22.30
2006,08,06,16,33,22.30
2006,08,06,16,34,22.30
2006,08,06,16,35,22.30
2006,08,06,16,36,22.40
2006,08,06,16,37,22.60
2006,08,06,16,38,22.70
2006,08,06,16,39,22.70
2006,08,06,16,40,22.80
2006,08,06,16,41,22.90
2006,08,06,16,42,22.90
2006,08,06,16,43,23.00
2006,08,06,16,44,23.10
2006,08,06,16,45,22.90
2006,08,06,16,46,22.80
2006,08,06,16,47,22.80
2006,08,06,16,48,22.80
2006,08,06,16,49,22.70
2006,08,06,16,50,22.70
2006,08,06,16,51,22.70
2006,08,06,16,52,22.80
2006,08,06,16,53,22.90
2006,08,06,16,54,23.00
2006,08,06,16,55,23.10
2006,08,06,16,56,23.20
2006,08,06,16,57,23.30
2006,08,06,16,58,23.40
2006,08,06,16,59,23.60
2006,08,06,17,00,23.70
2006,08,06,17,01,23.60
2006,08,06,17,02,23.50
2006,08,06,17,03,23.30
2006,08,06,17,04,23.30
2006,08,06,17,05,23.30
2006,08,06,17,06,23.30
2006,08,06,17,07,23.30
2006,08,06,17,08,23.20
2006,08,06,17,09,23.10
2006,08,06,17,10,23.10
2006,08,06,17,11,23.10
2006,08,06,17,12,23.00
2006,08,06,17,13,22.90
2006,08,06,17,14,22.80
2006,08,06,17,15,22.90
2006,08,06,17,16,22.90
2006,08,06,17,17,22.90
2006,08,06,17,18,23.00
2006,08,06,17,19,23.20